Location: College Park
(38.9810°N, 76.9370°W)
Time: 21:45:52
(UTC-05:00)

ISS - Pass Details

Date: 12 January 2018
Orbit: 402 x 407 km, 51.6° (Epoch: 21 January)

Event Time Altitude Azimuth Distance (km) Brightness Sun altitude
Exits shadow 06:34:21 12° 318° (NW) 1,350 -1.7 -10.0°
Maximum altitude 06:37:17 51° 35° (NE) 516 -3.2 -9.5°
Drops below altitude 10° 06:40:29 10° 113° (ESE) 1,461 0.7 -8.9°
Sets 06:42:36 0° 118° (ESE) 2,318 2.3 -8.5°
